Hourly Weather Roundup
Issued by NWS Central Illinois

Home | Current Version | Previous Version | Text Only | Print | Product List | Glossary On
Versions: 1 2 3 4 5 6 7 8 9 10 11 12 13 14 15 16 17 18 19 20 21 22 23 24 25 26 27 28 29 30 31 32 33 34 35 36 37 38 39 40 41 42 43 44 45 46 47 48 49 50
000
NZUS43 KILX 210210
HWRILX

AREA WEATHER ROUNDUP
NATIONAL WEATHER SERVICE, LINCOLN IL
900 PM CDT SAT SEP 20 2014


CITY           SKY/WX    TMP DP  RH WIND       PRES   REMARKS
BLOOMINGTON    MOCLDY    32  32 100 SW14      29.86S WCI  22
CHAMPAIGN      CLEAR     71  69  93 S7        29.86F FOG
DECATUR        CLEAR     71  69  93 S8        29.87F
FLORA          MOCLDY    72  67  84 S3        29.94S
GALESBURG      CLEAR     72  67  85 SW12      29.83F
JACKSONVILLE   CLEAR     77  70  78 SW10      29.87F
LACON          CLEAR     68  65  91 CALM      29.81F
LAWRENCEVILLE  MOCLDY    72  67  84 S7        29.94S
LITCHFIELD     CLEAR     69  67  92 S7        29.91F
$$


CITY           SKY/WX    TMP DP  RH WIND       PRES   REMARKS
LINCOLN        PTCLDY    73  68  83 S6        29.79F
MACOMB         PTCLDY    71  68  90 W6        29.87S
MATTOON        PTCLDY    73  68  84 S8        29.90F
MT CARMEL AP   PTCLDY    77  68  73 S7        29.94S
OLNEY-NOBLE AP MOCLDY    72  68  88 CALM      29.94S
PARIS          MOCLDY    68  67  96 S5        29.91S THUNDER
PEORIA         PTCLDY    74  67  78 W7        29.83F
PONTIAC        CLEAR     72  70  94 S3        29.82F FOG
RANTOUL        PTCLDY    73  67  84 SW6       29.86F
ROBINSON       MOCLDY    73  69  86 S6        29.94S
SPRINGFIELD    CLEAR     74  69  85 SW8       29.86F
TAYLORVILLE    CLEAR     72  68  88 S8        29.88F
$$

...REGIONAL REPORTS...


CITY           SKY/WX    TMP DP  RH WIND       PRES   REMARKS
CHICAGO O`HARE PTCLDY    69  62  78 SW5       29.79F
KANKAKEE       MOCLDY    70  67  92 S7        29.83F
MOLINE         CLEAR     71  66  84 SW9       29.80S
MOUNT VERNON   CLEAR     72  64  78 SW5       29.96R
PITTSFIELD     CLEAR     76  68  76 SW7       29.89S
QUINCY         PTCLDY    72  69  90 SW7       29.87F
ROCKFORD       MOCLDY    68  64  87 SW6       29.80R
$$


CITY           SKY/WX    TMP DP  RH WIND       PRES   REMARKS
BURLINGTON     LGT RAIN  73  69  87 W8        29.84F
CEDAR RAPIDS   CLEAR     68  65  90 SW7       29.80S
DES MOINES     CLEAR     72  59  63 W8        29.87R
KIRKSVILLE     PTCLDY    74  71  91 SW5       29.92R
OTTUMWA        CLEAR     71  67  87 SW7       29.86R
ST LOUIS       PTCLDY    79  67  66 SW7       29.93R HX  81
$$


CITY           SKY/WX    TMP DP  RH WIND       PRES   REMARKS
TERRE HAUTE    CLOUDY    76  67  73 SW6       29.92S
EVANSVILLE     CLEAR     73  66  78 CALM      29.97R
INDIANAPOLIS   CLOUDY    71  67  87 S10       29.90F
LAFAYETTE      LGT RAIN  67  66  97 CALM      29.86F
MADISON        PTCLDY    69  62  78 SW5       29.74S
MILWAUKEE      TSTM      68  63  84 W14G30    29.75S
$$




USA.gov is the U.S. government's official web portal to all federal, state and local government web resources and services.